Find OneWeb SL0517

NORAD ID: 54135 Int'l Des: 2022-138 Owner: ONEWEBN Country: UK Constellation: oneweb operational
LEOCIRCULARPOLARONEWEB_TYPE

リアルタイム位置

3D地球を読み込み中...

OneWeb SL0517について

説明を読み込み中...

次回通過

Passes for default location (London). Set your location on the main map for personalized predictions.

高度履歴

Loading altitude history...

軌道要素

1 54135U 22138Y 26106.63924972 -.00000036 00000-0 -12127-3 0 9998
2 54135 87.9164 317.2382 0001775 96.5647 263.5688 13.19727097168715
Epoch: Apr 16, 2026 • Age: 20 hours

現在のステータス

高度 1192.1 km
速度 7.26 km/s
衛星直下点 46.90°N, 60.24°W
打ち上げ日 Oct 22, 2022
運用期間 3.4 years
タイプ internet

技術仕様

分類 Payload
質量 148.00 kg
乾燥質量 140.00 kg
総質量 148.00 kg
長さ 1.30 m
直径 1.00 m
スパン 5.00 m
形状 Trapezoid+2 pan
製造者 ONEWUS
バスタイプ ARROW
フェーズステータス In Orbit
所有者/国 ONEWEBN/UK

Most Searched